Weather History for Springfield, MO

Change the Weather History Date:

Sunday, September 21, 2014

  Actual Average Record
Temperature  
Mean Temperature 68 °F 67 °F  
Max Temperature 78 °F 78 °F 93 °F (1955)
Min Temperature 57 °F 55 °F 37 °F (1983)
Degree Days  
Heating Degree Days 0 3  
Month to date heating degree days 25 20  
Since 1 July heating degree days 25 22  
Cooling Degree Days 3 4  
Month to date cooling degree days 144 144  
Year to date cooling degree days 1390 1330  
Growing Degree Days 19 (Base 50)    
Moisture  
Dew Point 57 °F    
Average Humidity 61    
Maximum Humidity 90    
Minimum Humidity 31    
Precipitation  
Precipitation 0.01 in 0.16 in 2.68 in (1925)
Month to date precipitation 5.00 3.26  
Year to date precipitation 26.97 33.37  
Snow  
Snow 0.00 in - - ()
Month to date snowfall 0.0  
Since 1 July snowfall 0.0  
Since 1 September snowfall 0.0  
Snow Depth 0.00 in    
Sea Level Pressure  
Sea Level Pressure 30.08 in    
Wind  
Wind Speed 10 mph (NNW)    
Max Wind Speed 20 mph    
Max Gust Speed 24 mph    
Visibility 10 miles    
Events Rain    
T = Trace of Precipitation, MM = Missing Value Source: NWS Daily Summary

Daily Weather History Graph

Daily Weather History Graph

Search for Another Location

Airport:

Trip Planner

Search our weather history database for the weather conditions in past years. The results will help you decide how hot, cold, wet, or windy it might be!

Date:

Astronomy

Sep. 21, 2014 Rise Set
Actual Time 7:00 AM CDT 7:11 PM CDT
Civil Twilight 6:34 AM CDT 7:37 PM CDT
Nautical Twilight 6:04 AM CDT 8:08 PM CDT
Astronomical Twilight 5:33 AM CDT 8:39 PM CDT
Moon 4:37 AM CDT (9/21) 5:46 PM CDT (9/21)
Length of Visible Light 13h 03m
Length of Day
12h 11m
Waning Crescent, 6% of the Moon is Illuminated
Sep 21
Waning Crescent
Sep 24
New
Oct 1
First Quarter
Oct 8
Full
Oct 15
Last Quarter

Hourly Weather History & Observations

Time (CDT) Temp. Dew Point Humidity Pressure Visibility Wind Dir Wind Speed Gust Speed Precip Events Conditions
12:52 AM 70.0 °F 66.9 °F 90% 29.98 in 10.0 mi South 5.8 mph - N/A   Partly Cloudy
1:52 AM 70.0 °F 66.9 °F 90% 29.99 in 9.0 mi SSW 5.8 mph - N/A   Mostly Cloudy
2:52 AM 72.0 °F 66.9 °F 84% 29.99 in 10.0 mi SW 3.5 mph - N/A   Mostly Cloudy
3:52 AM 73.0 °F 66.9 °F 81% 29.99 in 9.0 mi WNW 8.1 mph - 0.00 in Rain Light Rain
4:52 AM 72.0 °F 68.0 °F 87% 30.00 in 8.0 mi West 4.6 mph - 0.01 in Rain Light Rain
5:52 AM 71.1 °F 66.9 °F 87% 30.00 in 10.0 mi WSW 5.8 mph - 0.00 in   Clear
6:25 AM 71.1 °F 66.9 °F 87% 30.05 in 10.0 mi WNW 5.8 mph - N/A   Mostly Cloudy
6:37 AM 71.1 °F 66.9 °F 87% 30.06 in 10.0 mi WNW 6.9 mph - N/A   Partly Cloudy
6:52 AM 70.0 °F 66.9 °F 90% 30.03 in 10.0 mi NW 8.1 mph - N/A   Clear
7:11 AM 70.0 °F 66.9 °F 90% 30.07 in 8.0 mi NNW 12.7 mph - N/A   Mostly Cloudy
7:42 AM 69.1 °F 66.0 °F 90% 30.09 in 7.0 mi North 10.4 mph - N/A   Partly Cloudy
7:52 AM 69.1 °F 66.0 °F 90% 30.06 in 10.0 mi North 11.5 mph - N/A   Clear
8:52 AM 68.0 °F 59.0 °F 73% 30.12 in 10.0 mi North 10.4 mph - N/A   Clear
9:52 AM 71.1 °F 52.0 °F 51% 30.11 in 10.0 mi NNE 16.1 mph - N/A   Clear
10:52 AM 73.9 °F 46.9 °F 38% 30.12 in 10.0 mi NE 16.1 mph - N/A   Clear
11:52 AM 75.9 °F 46.0 °F 35% 30.13 in 10.0 mi North 15.0 mph - N/A   Clear
12:52 PM 77.0 °F 45.0 °F 32% 30.12 in 10.0 mi North 16.1 mph - N/A   Clear
1:52 PM 77.0 °F 46.0 °F 33% 30.10 in 10.0 mi NNE 15.0 mph - N/A   Clear
2:52 PM 77.0 °F 46.0 °F 33% 30.08 in 10.0 mi NNW 13.8 mph - N/A   Clear
3:52 PM 77.0 °F 46.9 °F 34% 30.08 in 10.0 mi NNW 13.8 mph - N/A   Clear
4:52 PM 75.9 °F 48.0 °F 37% 30.09 in 10.0 mi NNW 15.0 mph - N/A   Clear
5:52 PM 73.9 °F 48.0 °F 40% 30.09 in 10.0 mi North 11.5 mph - N/A   Clear
6:52 PM 69.1 °F 51.1 °F 53% 30.10 in 10.0 mi North 9.2 mph - N/A   Clear
7:52 PM 64.9 °F 50.0 °F 58% 30.12 in 10.0 mi North 8.1 mph - N/A   Clear
8:52 PM 63.0 °F 50.0 °F 63% 30.15 in 10.0 mi North 8.1 mph - N/A   Clear
9:52 PM 60.1 °F 51.1 °F 72% 30.17 in 10.0 mi North 5.8 mph - N/A   Clear
10:52 PM 60.8 °F 50.0 °F 68% 30.20 in 10.0 mi North 5.8 mph - N/A   Clear
11:52 PM 59.0 °F 48.9 °F 69% 30.19 in 10.0 mi NNE 5.8 mph - N/A   Clear